When you browse on this site, cookies collect data to enhance your experience and personalize the content and advertising you see.
Visit our Privacy Policy to learn more. By continuing to use the site, you agree to this use of cookies and data.
  • In Czech Republic
  • List of Countries
  • For 7 days
  • Water Temperature
  • Weather Map
  • Weather Widgets
  • user-avatar
    Login

    Hourly Weather Salzburg

    Today, 6 April, Monday

    Time Temperature Precipitation Wind Pressure Humidity
    00:00 -4°C° 0 mm 3 mps 628 mmHg 73%
    01:00 -5°C° 0 mm 4 mps 628 mmHg 73%
    02:00 -5°C° 0 mm 4 mps 628 mmHg 75%
    03:00 -5°C° 0 mm 4 mps 627 mmHg 77%
    04:00 -5°C° 0 mm 3 mps 627 mmHg 79%
    05:00 -4°C° 0 mm 3 mps 628 mmHg 76%
    06:00 -4°C° 0 mm 3 mps 628 mmHg 73%
    07:00 -2°C° 0 mm 2 mps 629 mmHg 70%
    08:00 +2°C° 0 mm 2 mps 630 mmHg 63%
    09:00 +5°C° 0 mm 2 mps 631 mmHg 57%
    10:00 +9°C° 0 mm 1 mps 632 mmHg 50%
    11:00 +9°C° 0 mm 2 mps 632 mmHg 47%
    12:00 +10°C° 0 mm 2 mps 633 mmHg 45%
    13:00 +12°C° 0 mm 2 mps 633 mmHg 42%
    14:00 +12°C° 0 mm 2 mps 633 mmHg 44%
    15:00 +10°C° 0 mm 2 mps 633 mmHg 46%
    16:00 +10°C° 0 mm 2 mps 632 mmHg 48%
    17:00 +9°C° 0 mm 1 mps 632 mmHg 59%
    18:00 +6°C° 0 mm 1 mps 631 mmHg 69%
    19:00 +3°C° 0 mm 1 mps 630 mmHg 80%
    20:00 +3°C° 0 mm 1 mps 631 mmHg 79%
    21:00 +2°C° 0 mm 1 mps 631 mmHg 79%
    22:00 -1°C° 0 mm 2 mps 632 mmHg 79%
    23:00 -1°C° 0 mm 2 mps 632 mmHg 79%

    Tomorrow, 7 April, Tuesday

    Time Temperature Precipitation Wind Pressure Humidity
    00:00 +1°C° 0 mm 1 mps 632 mmHg 79%
    01:00 +1°C° 0 mm 1 mps 632 mmHg 79%
    02:00 +1°C° 0 mm 1 mps 632 mmHg 79%
    03:00 0°C° 0 mm 1 mps 632 mmHg 80%
    04:00 0°C° 0 mm 1 mps 632 mmHg 80%
    05:00 +1°C° 0 mm 1 mps 633 mmHg 78%
    06:00 +2°C° 0 mm 1 mps 633 mmHg 76%
    07:00 +3°C° 0 mm 1 mps 634 mmHg 74%
    08:00 +6°C° 0 mm 1 mps 634 mmHg 67%
    09:00 +8°C° 0 mm 1 mps 635 mmHg 60%
    10:00 +11°C° 0 mm 1 mps 636 mmHg 54%
    11:00 +12°C° 0 mm 1 mps 636 mmHg 51%
    12:00 +12°C° 0 mm 1 mps 636 mmHg 48%
    13:00 +13°C° 0 mm 1 mps 636 mmHg 45%
    14:00 +13°C° 0 mm 1 mps 635 mmHg 45%
    15:00 +13°C° 0 mm 1 mps 635 mmHg 46%
    16:00 +12°C° 0 mm 1 mps 635 mmHg 47%
    17:00 +10°C° 0 mm 1 mps 634 mmHg 59%
    18:00 +7°C° 0 mm 1 mps 633 mmHg 70%
    19:00 +4°C° 0 mm 1 mps 632 mmHg 81%
    20:00 +2°C° 0 mm 2 mps 632 mmHg 78%
    21:00 +2°C° 0 mm 2 mps 632 mmHg 75%
    22:00 +1°C° 0 mm 2 mps 632 mmHg 73%
    23:00 +1°C° 0 mm 2 mps 632 mmHg 69%

    Day after tomorrow, 8 April, Wednesday

    Time Temperature Precipitation Wind Pressure Humidity
    00:00 -1°C° 0 mm 2 mps 632 mmHg 65%
    01:00 -2°C° 0 mm 2 mps 631 mmHg 62%
    02:00 -2°C° 0 mm 2 mps 631 mmHg 58%
    03:00 -2°C° 0 mm 2 mps 631 mmHg 55%
    04:00 -2°C° 0 mm 2 mps 631 mmHg 52%
    05:00 -1°C° 0 mm 2 mps 631 mmHg 50%
    06:00 +1°C° 0 mm 2 mps 631 mmHg 47%
    07:00 +3°C° 0 mm 1 mps 632 mmHg 45%
    08:00 +6°C° 0 mm 1 mps 632 mmHg 41%
    09:00 +9°C° 0 mm 1 mps 633 mmHg 37%
    10:00 +11°C° 0 mm 0 mps 634 mmHg 33%
    11:00 +13°C° 0 mm 1 mps 634 mmHg 33%
    12:00 +13°C° 0 mm 1 mps 634 mmHg 33%
    13:00 +14°C° 0 mm 1 mps 634 mmHg 33%
    14:00 +13°C° 0 mm 1 mps 633 mmHg 37%
    15:00 +13°C° 0 mm 2 mps 633 mmHg 40%
    16:00 +12°C° 0 mm 2 mps 632 mmHg 43%
    17:00 +10°C° 0 mm 1 mps 631 mmHg 57%
    18:00 +7°C° 0 mm 1 mps 630 mmHg 70%
    19:00 +4°C° 0 mm 0 mps 629 mmHg 83%
    20:00 +4°C° 0 mm 1 mps 629 mmHg 83%
    21:00 +4°C° 0 mm 1 mps 629 mmHg 84%
    22:00 +3°C° 0 mm 1 mps 629 mmHg 84%
    23:00 +3°C° 0 mm 1 mps 629 mmHg 85%

    9 April, Thursday

    Time Temperature Precipitation Wind Pressure Humidity
    00:00 +3°C° 0 mm 1 mps 629 mmHg 85%
    01:00 +2°C° 0 mm 1 mps 629 mmHg 85%
    02:00 +2°C° 0 mm 1 mps 629 mmHg 86%
    03:00 +2°C° 0 mm 1 mps 629 mmHg 87%
    04:00 +2°C° 0 mm 1 mps 629 mmHg 89%
    05:00 +3°C° 0 mm 1 mps 629 mmHg 87%
    06:00 +4°C° 0 mm 1 mps 629 mmHg 85%
    07:00 +4°C° 0 mm 0 mps 629 mmHg 83%
    08:00 +6°C° 0.1 mm 1 mps 630 mmHg 79%
    09:00 +8°C° 0.1 mm 1 mps 630 mmHg 76%
    10:00 +9°C° 0.1 mm 1 mps 631 mmHg 73%
    11:00 +10°C° 0.3 mm 1 mps 631 mmHg 71%
    12:00 +10°C° 0.3 mm 1 mps 630 mmHg 70%
    13:00 +11°C° 0.3 mm 1 mps 630 mmHg 69%
    14:00 +10°C° 0.4 mm 1 mps 630 mmHg 70%
    15:00 +9°C° 0.4 mm 2 mps 630 mmHg 71%
    16:00 +9°C° 0.4 mm 2 mps 630 mmHg 72%
    17:00 +8°C° 0.3 mm 1 mps 629 mmHg 79%
    18:00 +7°C° 0.3 mm 1 mps 629 mmHg 85%
    19:00 +5°C° 0.3 mm 1 mps 628 mmHg 91%
    20:00 +3°C° 0 mm 0 mps 628 mmHg 92%
    21:00 +3°C° 0 mm 0 mps 628 mmHg 92%
    22:00 +2°C° 0 mm 0 mps 629 mmHg 92%
    23:00 +2°C° 0 mm 0 mps 629 mmHg 92%

    10 April, Friday

    Time Temperature Precipitation Wind Pressure Humidity
    00:00 +2°C° 0 mm 0 mps 628 mmHg 92%
    01:00 +1°C° 0 mm 0 mps 628 mmHg 92%
    02:00 +2°C° 0 mm 1 mps 628 mmHg 92%
    03:00 +2°C° 0 mm 1 mps 628 mmHg 92%
    04:00 +1°C° 0 mm 1 mps 628 mmHg 92%
    05:00 +2°C° 0 mm 1 mps 628 mmHg 90%
    06:00 +3°C° 0 mm 1 mps 629 mmHg 88%
    07:00 +4°C° 0 mm 1 mps 629 mmHg 86%
    08:00 +7°C° 0 mm 1 mps 630 mmHg 77%
    09:00 +9°C° 0 mm 1 mps 631 mmHg 67%
    10:00 +11°C° 0 mm 0 mps 631 mmHg 58%
    11:00 +13°C° 0 mm 1 mps 632 mmHg 52%
    12:00 +14°C° 0 mm 1 mps 632 mmHg 45%
    13:00 +15°C° 0 mm 1 mps 632 mmHg 39%
    14:00 +15°C° 0 mm 1 mps 631 mmHg 40%
    15:00 +14°C° 0 mm 1 mps 631 mmHg 41%
    16:00 +14°C° 0 mm 1 mps 630 mmHg 42%
    17:00 +11°C° 0 mm 1 mps 629 mmHg 55%
    18:00 +9°C° 0 mm 1 mps 628 mmHg 69%
    19:00 +6°C° 0 mm 1 mps 627 mmHg 82%
    20:00 +6°C° 0 mm 1 mps 627 mmHg 82%
    21:00 +5°C° 0 mm 1 mps 628 mmHg 83%
    22:00 +5°C° 0 mm 1 mps 628 mmHg 83%
    23:00 +5°C° 0 mm 1 mps 628 mmHg 83%

    11 April, Saturday

    Time Temperature Precipitation Wind Pressure Humidity
    00:00 +5°C° 0 mm 1 mps 628 mmHg 83%
    01:00 +4°C° 0 mm 1 mps 628 mmHg 83%
    02:00 +4°C° 0 mm 1 mps 628 mmHg 84%
    03:00 +4°C° 0 mm 1 mps 627 mmHg 84%
    04:00 +4°C° 0 mm 1 mps 627 mmHg 85%
    05:00 +5°C° 0 mm 1 mps 628 mmHg 81%
    06:00 +6°C° 0 mm 1 mps 628 mmHg 77%
    07:00 +7°C° 0 mm 1 mps 629 mmHg 74%
    08:00 +9°C° 0 mm 1 mps 629 mmHg 66%
    09:00 +12°C° 0 mm 1 mps 630 mmHg 59%
    10:00 +14°C° 0 mm 1 mps 631 mmHg 52%
    11:00 +14°C° 0.3 mm 1 mps 630 mmHg 52%
    12:00 +14°C° 0.3 mm 1 mps 630 mmHg 52%
    13:00 +14°C° 0.3 mm 1 mps 630 mmHg 53%
    14:00 +14°C° 0.6 mm 1 mps 629 mmHg 58%
    15:00 +13°C° 0.6 mm 1 mps 629 mmHg 63%
    16:00 +12°C° 0.6 mm 1 mps 628 mmHg 68%
    17:00 +10°C° 0.3 mm 1 mps 628 mmHg 74%
    18:00 +9°C° 0.3 mm 1 mps 627 mmHg 80%
    19:00 +6°C° 0.3 mm 0 mps 627 mmHg 86%
    20:00 +6°C° 0.3 mm 0 mps 627 mmHg 87%
    21:00 +7°C° 0.3 mm 1 mps 627 mmHg 88%
    22:00 +7°C° 0.3 mm 1 mps 628 mmHg 89%
    23:00 +6°C° 0.6 mm 1 mps 628 mmHg 91%
    Show more